Погода в Демидовке

Украина / Ровненская область     50°25′51″N   25°20′11″E
темп.,
°C
ветер,
м/с
пор.,
м/с
влажн.,
%
обл.,
%
осадки,
мм/ч
давл.,
гПа
погр.,
м
26 июля, пн
пн2600:00+18юв3674100 0.0 101895
03:00+17юв487239 0.0 1017144
06:00+19юв51164100 0.0 1017285
09:00+21юв5126129 0.0 1017428
12:00+26ююв685068 0.0 1016876
15:00+23ююв596389 0.0 1016430
18:00+27ююв675425 0.0 10151106
21:00+21ююв4117931 0.6 1016261
27 июля, вт
вт2700:00+18юв514908 0.9 1016257
03:00+17юв413902 1.0 1015250
06:00+17юв410898 0.1 1014216
09:00+22ю477865 0.5 1014294
12:00+29ююз574958 0.1 10131046
15:00+26ю586732 0.1 1014398
18:00+27ююз686392 1.0 1013905
21:00+21юз33858 1.4 101345
28 июля, ср
ср2800:00+20ссз239265 1.8 101437
03:00+19зсз22945 1.8 101531
06:00+18зсз34963 0.0 101568
09:00+21зсз348269 0.0 1016307
12:00+26з235340 0.0 10151002
15:00+28зюз234536 0.0 10141662
18:00+29з22455 0.0 10131773
21:00+23ююз116212 0.0 101311
29 июля, чт
чт2900:00+20зюз228197 0.3 101422
03:00+20вюв3485100 0.9 101285
06:00+18юв2393100 3.0 101246
09:00+22зюз22815 3.2 1012352
12:00+24з457415 0.0 1013712
15:00+27з775928 0.0 10121439
18:00+25зсз5763100 0.1 10121273
21:00+22сз477515 0.1 1013268
30 июля, пт
пт3000:00+18зсз11880 0.0 101411
03:00+17з22910 0.0 101322
06:00+17юз11894 0.0 101311
09:00+22ююв22710 0.0 1013301
12:00+26ю44550 0.0 10111075
15:00+29ю45460 0.0 10101367
18:00+29ю44470 0.0 10081244
21:00+24юв4770100 0.0 1007118